User: anonymous   Login
Location: Newark
(54.8972°N, 99.8189°W)
Time: 20:13:58
(UTC+00:00)
Language:

deb Explorer IX - Orbit

View from above orbital plane
View from above orbital plane
View from above satellite
View from above satellite

Ground track
Ground track

The orbit data is extracted from the following two-line orbital elements,

1    85U 61004C   19326.45565258  .00001629  00000-0  37207-3 0  9995
2    85  38.7722   1.4664 0388204 193.8347 165.1502 14.19967266901499
Epoch (UTC): 22 November 2019 10:56:08
Eccentricity: 0.0388204
inclination: 38.7722°
perigee height: 546 km
apogee height: 1105 km
right ascension of ascending node: 1.4664°
argument of perigee: 193.8347°
revolutions per day: 14.19967266
mean anomaly at epoch: 165.1502°
orbit number at epoch: 90149

The dashed part of the orbit path shows where the satellite is in the earth's shadow,  

DLR